Location: *
(41.3833°S, 177.8333°W)
Time: 03:10:20
(UTC+00:00)

PSLV R/B - Pass Details

Date: 01 April 2020
Orbit: 503 x 580 km, 97.8° (Epoch: 31 May)

Event Time Altitude Azimuth Distance (km) Brightness Sun altitude
Rises 16:39:46 0° 359° (N) 2,720 7.3 -17.3°
Reaches altitude 10° 16:41:59 10° 352° (N) 1,822 6.3 -16.9°
Maximum altitude 16:45:44 43° 279° (W) 777 4.1 -16.2°
Drops below altitude 10° 16:49:28 10° 207° (SSW) 1,805 6.3 -15.5°
Sets 16:51:39 0° 199° (SSW) 2,692 7.2 -15.1°
